This is the latest recevied weather packets stored in our database for station/object OE3BCB-14. If no packets are shown the sender has not sent any weather packets the latest 10 day(s).
| Time | Temp. | Humidity | Pressure | Rain* | Wind** | Luminosity | Snow |
|---|---|---|---|---|---|---|---|
| 1777726890 | 34.44° C | 18% | 1023.8 hPa | - | - | 91 W/m² | - |
| 1777726587 | 33.33° C | 18% | 1023.9 hPa | - | - | 80 W/m² | - |
| 1777726285 | 34.44° C | 18% | 1023.9 hPa | - | - | 79 W/m² | - |
| 1777725982 | 35° C | 18% | 1024 hPa | - | - | 91 W/m² | - |
| 1777725680 | 34.44° C | 19% | 1024.1 hPa | - | - | 101 W/m² | - |
| 1777725378 | 33.33° C | 18% | 1024.2 hPa | - | - | 94 W/m² | - |
| 1777725075 | 33.89° C | 18% | 1024.3 hPa | - | - | 86 W/m² | - |
| 1777724470 | 32.78° C | 19% | 1024.4 hPa | - | - | 65 W/m² | - |
| 1777724168 | 33.89° C | 19% | 1024.5 hPa | - | - | 59 W/m² | - |
| 1777723865 | 34.44° C | 19% | 1024.5 hPa | - | - | 56 W/m² | - |
| 1777723563 | 34.44° C | 20% | 1024.6 hPa | - | - | 56 W/m² | - |
| 1777723261 | 33.33° C | 20% | 1024.6 hPa | - | - | 51 W/m² | - |
| 1777722958 | 32.78° C | 21% | 1024.7 hPa | - | - | 59 W/m² | - |
| 1777722656 | 32.22° C | 21% | 1024.7 hPa | - | - | 61 W/m² | - |
| 1777722354 | 32.22° C | 21% | 1024.8 hPa | - | - | 64 W/m² | - |
| 1777722051 | 33.33° C | 22% | 1025 hPa | - | - | 66 W/m² | - |
| 1777721749 | 33.89° C | 22% | 1025 hPa | - | - | 68 W/m² | - |
| 1777721446 | 32.78° C | 22% | 1025.1 hPa | - | - | 70 W/m² | - |
| 1777721144 | 32.78° C | 22% | 1025.2 hPa | - | - | 71 W/m² | - |
| 1777720841 | 32.22° C | 23% | 1025.3 hPa | - | - | 72 W/m² | - |
| 1777720539 | 31.11° C | 24% | 1025.3 hPa | - | - | 73 W/m² | - |
| 1777720237 | 31.11° C | 23% | 1025.4 hPa | - | - | 74 W/m² | - |
| 1777719934 | 31.67° C | 24% | 1025.4 hPa | - | - | 74 W/m² | - |
| 1777719632 | 31.67° C | 24% | 1025.4 hPa | - | - | 75 W/m² | - |
| 1777719329 | 31.67° C | 25% | 1025.5 hPa | - | - | 74 W/m² | - |
* Rain since midnight (hover to see other rain measurements)
** Current wind speed in m/s (hover to see current wind gust speed)